TimePDT,TemperatureF,Dew PointF,Humidity,Sea Level PressureIn,VisibilityMPH,Wind Direction,Wind SpeedMPH,Gust SpeedMPH,PrecipitationIn,Events,Conditions,WindDirDegrees,DateUTC
12:53 AM,28.9,27.0,92,29.73,10.0,Calm,Calm,-,N/A,,Scattered Clouds,0,2012-10-23 07:53:00
1:53 AM,28.9,26.1,89,29.74,10.0,Calm,Calm,-,N/A,,Overcast,0,2012-10-23 08:53:00
2:53 AM,30.9,28.0,89,29.74,4.0,Calm,Calm,-,0.00,Snow,Light Snow,0,2012-10-23 09:53:00
3:44 AM,30.2,28.4,93,29.71,2.0,Calm,Calm,-,0.01,Snow,Light Snow,0,2012-10-23 10:44:00
3:53 AM,30.9,28.9,92,29.74,1.8,Calm,Calm,-,0.01,Snow,Light Snow,0,2012-10-23 10:53:00
4:24 AM,30.2,28.4,93,29.71,0.8,Calm,Calm,-,0.01,Snow,Light Snow,0,2012-10-23 11:24:00
4:38 AM,30.2,30.2,100,29.71,0.5,Calm,Calm,-,0.04,Fog-Snow,Snow,0,2012-10-23 11:38:00
4:53 AM,30.9,28.9,92,29.75,0.8,West,5.8,-,0.06,Snow,Light Snow,260,2012-10-23 11:53:00
5:12 AM,30.2,28.4,93,29.73,2.0,WSW,6.9,-,0.01,Snow,Light Snow,250,2012-10-23 12:12:00
5:19 AM,30.2,28.4,93,29.73,8.0,West,5.8,-,0.01,Snow,Light Snow,260,2012-10-23 12:19:00
5:53 AM,28.9,27.0,92,29.79,10.0,Calm,Calm,-,0.01,,Scattered Clouds,0,2012-10-23 12:53:00
6:53 AM,28.9,26.1,89,29.83,10.0,SSW,8.1,-,N/A,,Mostly Cloudy,200,2012-10-23 13:53:00
7:53 AM,30.9,28.0,89,29.86,10.0,SSW,12.7,-,N/A,,Overcast,200,2012-10-23 14:53:00
8:53 AM,30.9,28.0,89,29.88,10.0,SSW,12.7,-,N/A,,Scattered Clouds,200,2012-10-23 15:53:00
9:53 AM,33.1,28.9,85,29.90,10.0,South,10.4,-,N/A,,Clear,190,2012-10-23 16:53:00
10:53 AM,36.0,30.0,79,29.91,10.0,South,8.1,-,N/A,,Mostly Cloudy,180,2012-10-23 17:53:00
11:53 AM,37.9,28.9,70,29.92,10.0,SSW,4.6,-,N/A,,Overcast,200,2012-10-23 18:53:00
12:53 PM,37.0,28.0,70,29.93,2.5,Variable,3.5,-,0.01,Snow,Light Snow,0,2012-10-23 19:53:00
1:08 PM,37.4,30.2,75,29.88,6.0,North,5.8,-,0.00,Snow,Light Snow,350,2012-10-23 20:08:00
1:53 PM,39.9,28.0,63,29.92,9.0,SW,6.9,-,0.00,,Overcast,230,2012-10-23 20:53:00
2:53 PM,39.0,27.0,62,29.92,10.0,SSW,11.5,-,N/A,,Overcast,210,2012-10-23 21:53:00
3:53 PM,43.0,28.0,56,29.91,10.0,Variable,4.6,-,N/A,,Overcast,0,2012-10-23 22:53:00
4:53 PM,42.1,21.0,43,29.92,10.0,South,8.1,-,N/A,,Overcast,180,2012-10-23 23:53:00
5:53 PM,36.0,28.0,73,29.96,10.0,SE,8.1,-,N/A,,Mostly Cloudy,130,2012-10-24 00:53:00
6:53 PM,33.1,27.0,78,29.97,10.0,ESE,5.8,-,N/A,,Mostly Cloudy,110,2012-10-24 01:53:00
7:53 PM,30.9,26.1,82,29.97,10.0,NNW,3.5,-,N/A,,Mostly Cloudy,340,2012-10-24 02:53:00
8:53 PM,27.0,24.1,89,29.99,10.0,NE,4.6,-,N/A,,Clear,50,2012-10-24 03:53:00
9:53 PM,24.1,21.9,91,29.99,10.0,NE,5.8,-,N/A,,Clear,50,2012-10-24 04:53:00
10:53 PM,23.0,19.9,88,30.00,10.0,NE,6.9,-,N/A,,Clear,50,2012-10-24 05:53:00
11:53 PM,25.0,23.0,92,29.99,10.0,NE,6.9,-,N/A,,Clear,40,2012-10-24 06:53:00